STARLINK-5222, 54068

Orbit data source: Space-Track

STARLINK-5222, 54068 is a payload satellite owned by SpaceX/Seattle (US) in LEO that was launched on Thu, 20 Oct 2022 UTC via an FALCON 9 launch vehicle from the Air Force Eastern Test Range (AFETR). Payload-class satellites include a variety of spacecraft equipped with specific instruments for various scientific and technological missions. These include communications satellites like Starlink; space stations such as the ISS; scientific satellites like the Hubble; Earth observation satellites from companies like Planet Labs, Umbra, and HawkEye 360; GPS; miniature CubeSats for education and research; and military/defense satellites.

Loading next visibility...
Identifier
54068, 2022-136T
Orbit
LEO
Country
Flag of USUS
Related business
Manufacturer
SpaceX/Seattle
Mission
Operational Commercial Communications
Bus & Motor
STARLINK, Unknown motor
Mass
305 kg wet, ~290 kg dry
Launch date (UTC)
2022-10-20 (3 years ago)
Launch vehicle
FALCON 9
Launch site
Air Force Eastern Test Range (AFETR)
Object type
Payload
Rocket body
Debris
Shape & HBR
Box + 1 Pan, 10.1 m
Radar Cross Section
13.562 m², Large (>1 m²)

Expand to show TLE details & history
Last TLE update: 6 hours ago

TLE from 6 hours ago
0 STARLINK-5222
1 54068U 22136T   25303.77326230  .00000314  00000-0  37787-4 0  9994
2 54068  53.2163 207.1534 0001298  95.0971 265.0169 15.08840310167236
Epoch: 2025-10-30T18:33Z
TLE epoch observation values (Epoch: 2025-10-30T18:33:29.862Z)
Latitude
-0.00006°
Longitude
-110.54831°
Altitude
540.718 km
Speed
7.593 km/s
True Right ascension
13h 48m 36s
True Declination
0° 00' 00"
Sunlit
Object was in daylight at epoch
Visualization orbit readout
Latitude
Unknown
Longitude
Unknown
Altitude
Unknown
Speed
Unknown
Apparent Right ascension
Unknown
Apparent Declination
Unknown
Sunlit
N/A
Visualization observer readout
Local Sidereal Time
20:29:20
Azimuth
Unknown
Elevation
Unknown
Doppler factor
Unknown
Orbital elements
Apogee altitude
540.886 km
Perigee altitude
539.09 km
Semi-major axis
6,918.125 km
Eccentricity
0.00013
Inclination
53.2163°
RAAN
207.1534°
Arg. of periapsis
95.0971°
True anomaly
265.00208°
Mean anomaly
265.0169°
Eccentric anomaly
265.00949°
Mean motion
3.7719 °/min
Orbital period
95.44 mins
BSTAR
0.000037787
Loading maneuver chart data...
Computing Atmospheric mass density...
Loading historical data...
Loading historical data...
Loading historical data...
Loading historical data...
Loading historical data...
Loading historical data...
Loading historical data...

Documentation

Showing up to 5 results
|